#timestamp,LO_Frequency,Hit,StdDev 
1594670415.5,286047000.8,N
1594670435.4,286047001.1,N
1594670455.2,286047000.6,N
1594670475.0,286047001.2,N
1594670476.0,286047001.2,N
1594670495.8,286047000.5,N
1594670515.6,286047000.4,N
1594670535.5,286046999.9,N
1594670555.3,286047001.6,N
1594670575.1,286047000.2,N
1594670595.9,286047002.8,Y
1594670615.7,286047000.1,P
1594670635.5,286047002.6,P
1594670655.4,286046999.7,N
1594670675.2,286047000.9,N
1594670695.1,286047001.1,N
1594670696.0,286047001.1,N
1594670715.8,286046998.5,N
1594670735.6,286046998.6,N
1594670755.5,286046998.2,N
1594670775.3,286047000.8,N
1594670795.1,286047002.4,N
1594670815.9,286047002.7,N
1594670835.7,286047000.6,N
1594670855.6,286047000.4,N
1594670875.4,286047001.2,N
1594670895.2,286046998.1,N
1594670915.1,286047001.2,N
1594670916.0,286047001.2,N
1594670935.8,286046998.6,N
1594670955.6,286046998.1,N
1594670975.5,286046998.9,N
1594670995.3,286046997.0,N
1594671015.2,286046996.5,N
1594671035.9,286047001.2,N
1594671055.7,286046998.2,N
1594671075.6,286046998.2,N
1594671095.4,286047001.2,N
1594671115.2,286046998.6,N
1594671135.1,286047000.7,N
1594671136.0,286047000.7,N
1594671155.8,286046998.5,N
1594671175.7,286046998.6,N
1594671195.5,286046998.4,N
1594671215.3,286046998.3,N
1594671235.2,286046998.6,N
1594671255.0,286046998.7,N
1594671255.9,286046998.7,N
1594671275.8,286046999.3,N
1594671295.6,286046998.4,N
1594671315.4,286046999.0,N
1594671335.3,286046996.5,N
1594671355.1,286046996.9,N
1594671375.8,286046997.0,N
1594671395.7,286046999.1,N
1594671415.5,286046999.1,N
1594671435.4,286046998.9,N
1594671455.2,286047002.0,N
1594671475.0,286047002.0,N
1594671475.9,286047002.0,N
1594671495.8,286047001.7,N
1594671515.6,286047002.1,N
1594671535.4,286046999.9,N
1594671555.3,286047002.7,N
1594671575.1,286047001.5,N
1594671595.9,286047004.0,N
1594671615.7,286047003.5,N
1594671635.5,286047003.2,N
1594671655.4,286047004.2,N
1594671675.2,286047003.0,N
1594671695.0,286047003.3,N
1594671696.0,286047003.3,N
1594671715.8,286047004.1,N
1594671735.6,286047001.8,N
1594671755.5,286047002.6,N
1594671775.3,286047002.8,N
1594671795.1,286046999.7,N
1594671815.9,286047002.7,N
1594671835.7,286047000.1,N
1594671855.5,286047002.8,N
1594671875.4,286047002.4,N
1594671895.2,286047002.5,N
1594671915.1,286046999.8,N
1594671916.0,286046999.8,N
1594671935.8,286047002.3,N
1594671955.6,286047001.6,N
1594671975.5,286047001.4,N
1594671995.3,286047003.2,N
1594672015.1,286047003.5,N
1594672035.9,286047003.6,N
1594672055.7,286047005.5,Y
1594672075.6,286047001.9,P
1594672095.4,286047003.9,P
1594672115.2,286047003.5,P
1594672135.1,286047003.0,Y
1594672136.0,286047003.0,P
1594672155.8,286047001.7,P
1594672175.7,286047004.3,P
1594672195.5,286047004.1,Y
1594672215.4,286047001.2,P
1594672235.2,286046998.1,N
1594672255.0,286046998.4,N
1594672255.9,286046998.4,N
1594672275.8,286046999.0,N
1594672295.6,286046997.0,N
1594672315.4,286046996.8,N
1594672335.3,286046997.3,N
1594672355.1,286046997.2,N
1594672375.9,286046997.4,N
1594672395.7,286046997.6,N
1594672415.5,286046997.4,N
1594672435.4,286046997.7,N
1594672455.2,286046997.9,N
1594672475.0,286046997.8,N
1594672475.9,286046997.8,N
1594672495.8,286046997.3,N
1594672515.6,286046997.2,N
1594672535.5,286046997.8,N
1594672555.3,286046997.0,N
1594672575.1,286046997.5,N
1594672595.9,286046996.8,N
1594672615.7,286046999.6,N
1594672635.5,286046996.9,N
1594672655.4,286046999.6,N
1594672675.2,286046996.6,N
1594672695.1,286046996.6,N
1594672696.0,286046996.6,N
1594672715.8,286046996.7,N
1594672735.6,286046997.1,N
1594672755.5,286046996.8,Y
1594672775.3,286046998.5,P
1594672795.1,286047001.0,N
1594672815.9,286046998.7,N
1594672835.7,286046999.3,N
1594672855.6,286046998.7,N
1594672875.4,286047001.1,N
1594672895.2,286046999.9,N
1594672915.1,286047000.6,N
1594672916.0,286047000.6,N
1594672935.8,286047002.8,N
1594672955.6,286047004.1,N
1594672975.5,286047003.5,N
1594672995.3,286047003.3,N
1594673015.2,286047005.2,N
1594673035.9,286047008.0,Y
1594673055.7,286047009.1,P
1594673075.6,286047007.7,N
1594673095.4,286047012.3,P
1594673115.2,286047011.6,N
1594673135.1,286047011.7,N
1594673136.0,286047011.7,Y
1594673155.8,286047002.0,P
1594673175.7,286047003.6,N
1594673195.5,286047003.2,N
1594673215.3,286047005.6,N
1594673235.2,286047004.2,N
1594673255.0,286047001.9,N
1594673255.9,286047001.9,N
1594673275.8,286047002.3,N
1594673295.6,286047002.4,N
1594673315.4,286047000.2,N
1594673335.3,286047000.6,N
1594673355.1,286047000.4,N
1594673375.8,286046999.8,N
1594673395.7,286046999.8,N
1594673415.5,286046998.9,N
1594673435.4,286046998.2,N
1594673455.2,286047000.9,N
1594673475.0,286046999.0,N
1594673475.9,286046999.0,N
1594673495.8,286046999.5,N
1594673515.6,286046997.1,N
1594673535.4,286046996.8,N
1594673555.3,286046994.9,N
1594673575.1,286046995.2,N
1594673595.9,286046996.2,N
1594673615.7,286046995.6,N
1594673635.5,286046996.3,N
1594673655.4,286046993.7,N
1594673675.2,286046993.5,N
1594673695.0,286046996.2,N
1594673695.9,286046996.2,N
1594673715.8,286046993.7,N
1594673735.6,286046993.6,N
1594673755.5,286046991.7,N
1594673775.3,286046994.6,N
1594673795.1,286046992.1,N
1594673815.9,286046994.2,N
1594673835.7,286046993.6,N
1594673855.5,286046991.8,N
1594673875.4,286046992.1,N
1594673895.2,286046991.9,N
1594673915.0,286046991.7,N
1594673916.0,286046991.7,Y
1594673935.8,286046997.4,P
1594673955.6,286046995.1,P
1594673975.5,286046995.6,P
1594673995.3,286046996.4,Y
